Theta_e
330 330 330 329 329 329 330 329 329 328 327 325 324 323 324 328 328 322 318 320 322 323 325 325 326 326 326 325 326 327 329 330 330 329 328 329 329 331 331 331 328 322 317 318 318 317 320 318 315 314 312 311 310 309 310 309 308 308 308 308 308 307 307 307 307 307 307 307 307 307 307 307 308 308 308 308 308 308 309 308 309 308 308 308 308
331 331 330 330 329 329 330 329 328 329 329 327 325 325 325 328 329 322 317 320 323 323 325 326 326 327 327 326 326 327 328 329 329 328 328 327 327 328 331 332 330 325 320 318 317 318 321 320 316 315 314 311 310 309 310 309 307 308 307 307 307 307 307 307 307 307 307 307 307 307 307 307 307 307 308 308 308 308 308 309 308 309 308 308 308
331 332 331 330 330 330 330 329 329 329 330 328 327 327 326 328 330 326 321 320 323 324 324 326 326 326 326 327 327 327 328 328 328 328 327 327 326 327 330 332 331 328 324 320 318 318 321 321 320 320 316 311 310 309 309 308 306 307 306 306 307 307 307 307 307 307 307 307 307 307 307 307 307 307 308 308 308 308 308 308 308 308 308 308 308
331 331 330 330 330 330 330 329 328 328 329 329 327 327 327 327 328 329 327 323 322 323 324 325 325 326 326 327 327 326 327 327 327 327 327 327 327 329 331 332 330 328 326 324 320 318 318 319 320 322 321 314 312 311 309 309 307 307 306 305 306 306 306 307 306 306 306 306 306 306 306 306 307 307 308 308 308 308 308 308 308 308 308 308 308
330 330 329 329 330 330 329 328 328 328 329 329 328 328 328 328 328 329 330 326 324 325 325 325 325 325 326 326 326 326 325 326 326 326 326 328 329 330 332 331 330 328 327 327 324 321 318 315 315 318 319 315 313 314 312 309 307 305 307 308 307 306 306 306 306 305 305 306 305 306 306 306 306 306 307 308 308 308 308 308 308 308 308 308 309
330 330 329 330 330 330 329 328 328 329 329 329 328 329 329 329 329 329 329 328 327 327 327 327 327 326 326 326 326 326 325 325 325 325 326 327 328 330 331 331 330 328 328 327 327 325 320 317 314 313 313 311 311 313 312 312 308 304 309 315 314 309 307 305 305 305 305 305 305 305 305 305 306 306 307 307 307 308 308 308 308 308 308 308 308
330 330 329 330 330 330 330 329 328 328 329 329 329 330 330 329 329 329 329 329 329 329 329 328 328 328 327 327 327 326 326 326 326 325 325 325 326 328 329 330 330 329 329 328 328 327 324 321 318 315 313 313 314 313 313 314 311 307 310 319 321 313 310 307 305 305 305 305 305 305 305 305 305 306 306 307 307 307 308 308 308 308 308 308 308
330 331 330 330 331 331 331 329 328 328 329 330 330 330 330 330 329 329 329 329 329 330 329 329 329 329 328 327 327 327 326 326 326 326 326 325 325 327 328 329 330 329 329 329 328 328 327 325 321 319 318 317 317 316 315 316 315 313 311 318 323 315 312 313 308 305 305 305 305 305 306 306 306 306 306 307 307 307 307 307 308 308 308 308 308
329 330 330 331 331 331 330 329 328 328 328 329 329 330 330 330 329 329 329 329 329 329 329 329 329 329 329 328 327 327 327 326 326 325 325 326 325 325 326 327 329 330 330 330 329 329 328 328 325 322 321 320 320 320 319 318 316 316 313 316 322 317 312 314 313 311 308 308 308 308 308 308 308 308 307 307 307 307 307 308 307 308 308 308 308
328 329 329 329 330 330 330 329 328 328 328 328 328 329 329 329 329 329 329 329 329 328 327 327 327 329 329 328 327 327 327 326 326 325 325 325 325 325 325 326 327 328 329 329 330 329 329 328 327 325 325 323 323 323 323 322 319 319 317 316 319 319 315 313 315 316 313 311 312 312 312 311 310 310 309 309 308 308 308 308 308 308 308 308 308
327 328 329 329 329 329 329 329 328 328 328 328 329 329 328 328 329 329 329 329 328 327 326 325 326 327 329 328 327 327 326 326 325 325 324 325 325 325 325 325 326 326 327 328 329 329 329 329 328 328 327 326 325 326 325 324 324 323 322 320 320 320 319 316 315 317 316 314 314 314 313 313 312 311 310 310 309 309 309 308 308 308 308 308 307
326 327 328 328 328 328 328 328 328 328 328 328 328 328 328 328 328 328 329 329 328 325 325 326 326 327 328 328 328 327 326 326 325 324 324 324 325 325 325 325 325 325 326 326 327 328 329 329 330 329 329 328 326 326 325 325 325 325 325 327 326 324 322 320 317 318 319 317 316 315 315 314 313 312 312 311 310 310 309 309 308 308 308 308 308
322 323 324 326 326 326 325 325 324 325 325 326 326 327 327 328 328 328 327 328 327 325 326 326 327 328 328 328 328 326 326 326 324 324 324 324 324 324 325 325 325 326 326 326 327 328 328 328 329 328 327 328 328 327 327 326 326 325 325 327 329 329 326 324 321 320 320 320 319 318 317 317 316 315 314 313 312 312 311 310 309 308 308 308 309
317 319 321 323 324 323 321 320 319 319 319 320 322 323 325 326 328 328 327 328 328 327 327 327 327 328 329 328 328 326 326 325 325 324 323 323 323 323 325 326 326 326 326 326 327 328 328 327 327 327 326 327 329 329 328 327 327 326 325 325 326 328 329 327 326 324 322 322 322 321 320 319 319 319 319 318 316 315 314 313 312 310 310 308 308
314 314 316 317 317 316 315 314 315 316 316 318 320 322 323 324 326 327 327 327 328 327 327 327 328 328 328 328 328 327 327 327 326 324 322 322 323 325 326 326 327 327 326 325 325 326 326 326 326 326 326 327 327 327 327 327 327 327 326 325 325 326 328 328 328 327 325 324 324 323 322 322 322 322 321 321 320 319 318 316 315 314 313 311 309
311 311 311 311 312 312 312 313 315 316 318 319 321 322 323 323 325 325 326 327 327 327 327 327 328 328 328 328 328 328 328 328 327 326 323 322 324 324 325 325 326 327 326 324 323 325 326 326 325 324 325 326 325 326 326 326 326 327 327 326 326 326 326 327 328 328 327 327 327 325 323 323 323 324 323 323 323 322 322 321 320 318 317 315 313
312 312 311 311 312 312 312 313 315 317 319 320 322 323 323 322 323 324 325 325 325 326 327 327 327 327 327 328 328 328 329 327 327 327 325 324 324 323 323 323 324 326 326 325 325 325 326 325 324 324 324 325 325 325 326 325 325 326 327 327 327 327 327 326 327 327 327 327 327 327 326 325 324 324 324 325 323 322 323 323 323 322 320 319 317
314 313 312 312 312 312 312 313 314 316 318 320 321 321 321 321 320 322 324 325 324 325 325 326 327 327 327 327 327 328 328 326 327 328 326 324 324 324 324 323 323 325 325 326 326 325 325 325 325 325 326 325 325 325 325 325 325 326 327 327 326 326 325 325 325 326 327 327 327 327 327 327 326 326 326 325 324 323 323 323 324 324 324 322 320
312 311 312 312 312 311 310 310 312 313 316 318 319 319 320 319 318 319 321 323 324 324 325 326 326 326 326 326 326 326 326 326 327 327 327 326 326 325 325 323 323 324 325 325 325 325 325 326 326 326 326 326 325 325 325 326 326 326 326 326 326 325 324 324 325 326 326 326 326 326 327 327 327 328 327 327 327 326 325 325 325 325 325 325 324
310 309 310 311 310 307 306 307 307 309 311 313 315 315 315 314 314 315 317 320 323 325 325 326 326 326 325 325 326 326 325 325 325 326 326 327 326 325 325 324 324 324 325 325 325 326 325 325 325 325 325 325 324 324 324 324 325 325 325 325 325 325 325 324 324 325 326 325 326 326 326 326 326 326 326 326 327 327 326 326 326 326 326 326 326
308 308 309 308 306 306 305 305 305 306 306 307 308 308 308 311 313 314 317 320 321 323 323 324 325 325 325 325 325 325 324 324 324 325 325 326 325 325 325 325 325 325 325 325 325 325 324 325 324 324 324 324 324 324 324 324 325 325 325 324 324 325 325 324 324 325 326 326 326 326 326 326 326 326 325 326 326 326 326 326 325 326 327 327 327
307 308 307 306 305 306 306 306 306 306 305 305 305 306 306 309 311 312 317 319 320 321 321 321 322 323 324 324 324 323 323 323 324 324 324 325 324 324 325 324 324 324 324 325 325 325 325 325 324 324 323 322 322 322 323 323 322 323 324 324 325 325 324 324 324 325 325 326 326 326 325 325 324 324 325 325 326 327 326 326 326 326 327 327 327
307 307 306 306 306 306 306 306 306 306 306 306 306 306 306 307 308 308 311 314 314 315 314 313 316 319 321 321 321 320 321 321 322 324 324 323 323 324 323 321 322 322 323 324 323 324 323 322 321 320 319 318 318 318 318 318 318 321 323 325 325 325 323 322 321 323 324 324 324 323 322 322 322 322 323 324 326 326 326 326 327 327 327 327 327
306 306 306 306 306 306 306 306 306 306 306 306 306 306 306 306 306 306 307 307 307 307 306 306 310 314 316 316 315 315 317 319 321 322 323 322 322 322 321 319 318 318 319 320 319 319 319 318 318 318 318 318 318 318 317 317 316 318 321 323 324 323 321 319 319 321 324 323 322 321 320 320 321 321 321 321 323 325 326 327 327 327 327 327 326
306 306 306 306 306 306 306 306 306 306 306 306 306 306 306 306 306 305 306 305 305 305 306 306 307 309 310 309 310 311 314 317 319 321 322 321 320 320 319 317 316 314 315 315 316 316 317 317 318 318 319 320 320 320 319 318 318 318 318 320 320 319 319 319 319 322 324 323 322 322 321 321 320 320 319 319 319 320 322 322 323 324 325 325 325
306 306 306 306 306 306 306 306 306 306 306 305 305 305 305 305 305 305 305 305 305 305 305 305 305 305 305 306 307 308 309 311 313 314 316 318 319 319 318 316 314 313 313 313 313 314 315 317 318 319 320 320 321 321 321 321 321 320 320 320 320 320 321 322 323 324 324 324 323 323 322 321 320 319 319 318 318 317 317 317 317 318 318 319 320
306 306 306 306 306 306 306 306 306 306 306 305 305 305 305 305 304 304 304 304 304 304 304 304 304 303 303 303 304 304 304 305 305 305 307 310 315 318 317 316 314 313 312 311 311 311 311 313 315 317 318 319 320 321 321 321 322 322 322 322 322 322 322 323 323 323 323 323 322 322 321 320 319 319 318 318 317 315 314 313 312 312 312 313 313
306 306 306 306 306 307 306 306 306 306 306 306 305 305 305 305 305 304 303 303 303 303 303 303 303 303 303 303 303 302 302 302 302 303 303 304 308 313 316 316 315 314 313 312 310 309 308 308 309 311 314 316 318 318 319 319 320 321 321 321 322 322 322 322 322 322 321 321 320 319 319 318 317 316 314 313 311 310 308 307 307 307 307 307 307
307 306 307 307 307 307 307 307 307 306 306 306 306 306 305 305 305 304 304 303 303 303 302 302 302 303 303 302 303 303 303 303 302 302 303 303 304 308 312 315 315 314 314 313 311 309 307 306 306 307 307 309 311 312 313 315 317 318 318 318 319 319 319 319 318 318 317 316 315 314 313 312 310 309 307 306 306 305 304 304 304 304 305 305 305
307 307 307 307 307 307 308 308 308 308 308 307 307 307 306 305 305 305 305 304 304 303 303 303 303 303 303 303 303 303 304 304 303 303 302 302 303 304 306 310 313 314 313 313 310 308 306 305 305 305 305 305 305 306 306 308 309 310 310 310 310 310 310 310 309 309 308 308 307 306 306 305 305 304 304 304 304 304 304 304 304 304 304 305 305
307 307 307 308 308 309 310 311 311 311 310 309 309 308 307 307 307 306 306 306 305 305 304 304 304 303 303 304 304 304 305 305 305 304 304 303 303 303 303 305 309 312 312 312 310 307 305 305 305 305 305 305 305 305 305 305 305 305 305 305 305 305 305 305 305 305 305 305 305 305 305 304 304 304 304 304 304 304 304 305 305 305 305 305 305
308 308 309 310 311 312 313 314 315 315 314 313 312 311 310 309 309 309 308 308 307 307 306 305 305 304 304 304 304 305 305 305 306 305 305 305 305 305 304 304 306 309 310 310 309 306 305 305 305 305 305 305 305 305 306 306 306 306 306 306 306 305 305 305 305 305 305 305 305 305 305 305 305 305 305 305 305 305 305 305 305 305 305 305 305
308 309 311 313 314 315 316 316 317 317 317 317 316 315 314 314 313 312 311 311 310 309 308 307 307 306 305 305 304 305 305 305 306 306 306 306 306 306 306 305 306 307 307 307 307 306 305 305 305 304 305 305 305 305 305 306 306 306 307 306 306 306 306 306 306 305 305 305 305 305 304 304 304 304 304 304 304 304 305 305 305 305 305 305 305
312 312 314 316 317 318 318 318 317 318 318 318 318 317 317 317 316 316 315 314 313 312 311 311 310 309 309 308 306 306 306 305 305 305 306 306 306 306 306 306 306 306 306 306 306 305 305 306 306 306 307 307 306 307 306 306 306 306 306 306 306 307 307 307 307 306 306 306 306 305 305 305 305 305 304 304 304 304 303 303 303 304 304 304 304
314 315 316 318 319 318 318 318 318 318 318 318 318 318 318 318 318 318 318 317 316 316 315 314 314 313 312 311 310 309 308 307 307 307 306 306 306 306 306 306 306 306 307 308 309 309 310 310 310 310 311 310 310 310 310 309 308 307 306 306 306 307 307 307 307 307 306 306 306 306 306 306 305 305 305 305 305 304 304 304 303 303 302 302 302
314 317 318 318 319 318 318 318 318 319 319 319 318 318 318 317 316 318 318 318 318 317 317 317 317 317 316 314 313 312 312 311 310 310 309 308 307 307 308 308 309 309 311 312 313 312 312 311 311 311 311 311 311 311 311 310 310 309 309 308 307 307 307 307 307 307 307 306 306 306 306 305 305 305 305 305 305 305 305 304 304 303 303 303 302
315 318 319 319 319 318 317 316 316 317 319 318 318 318 318 316 316 316 317 318 318 318 318 318 319 319 318 317 316 315 314 313 313 313 313 312 310 310 312 312 313 313 313 314 313 313 312 311 311 311 310 309 309 309 309 309 308 308 309 309 309 308 308 308 308 307 307 307 307 307 306 306 306 305 304 304 304 304 304 304 304 304 304 303 303
315 316 318 318 318 317 316 315 315 316 317 318 317 317 317 317 316 316 317 317 317 318 318 319 319 319 319 319 318 317 316 315 315 315 315 314 313 313 313 312 313 313 314 313 313 313 313 312 311 311 310 310 309 309 308 308 307 306 306 307 308 308 309 308 308 308 308 307 307 307 307 306 306 305 305 304 303 303 303 303 303 303 303 303 303
315 314 315 315 315 315 315 314 314 315 316 316 316 316 316 317 317 317 317 317 317 317 318 319 319 319 319 318 318 318 317 317 317 316 315 315 315 314 312 311 311 312 313 314 313 313 313 312 312 312 311 310 310 309 309 309 309 308 306 306 305 306 307 308 308 308 308 307 307 307 307 306 306 306 305 305 304 303 303 302 302 302 302 302 303
317 316 316 315 315 315 316 316 315 315 316 317 317 318 317 317 317 317 318 318 317 318 319 319 319 319 319 318 316 316 316 317 317 317 316 315 315 314 313 312 312 311 312 313 313 313 313 312 312 311 311 311 310 309 309 309 308 308 307 307 306 304 304 305 306 307 307 306 306 306 306 306 305 305 304 304 304 304 303 302 302 301 301 301 301
319 319 318 317 317 317 317 317 317 317 317 318 318 318 317 317 317 319 319 319 319 319 319 319 319 319 319 318 316 316 316 317 318 318 317 316 315 314 314 314 313 312 312 311 312 312 312 312 311 311 311 310 310 309 309 308 308 307 307 307 306 305 303 303 304 305 305 305 305 305 304 304 304 304 303 303 303 303 303 302 302 301 301 300 300
318 317 317 317 316 316 317 317 317 318 317 318 318 317 317 317 317 316 316 317 318 319 319 319 319 319 319 318 317 317 317 318 318 318 318 317 316 315 315 314 314 313 313 312 311 311 311 311 311 311 311 310 310 310 309 308 307 307 306 306 305 304 303 303 303 303 303 303 303 303 303 302 302 302 302 302 301 301 301 301 301 300 300 299 299
317 317 317 317 316 316 317 317 317 317 317 317 316 316 315 314 313 313 312 313 314 316 317 318 318 318 317 316 316 317 318 319 318 317 316 317 316 316 315 314 313 313 313 313 312 312 311 311 311 311 311 311 310 310 309 308 306 306 305 305 304 303 303 302 303 302 302 302 301 301 301 301 300 300 300 300 300 300 300 300 300 300 299 299 299
316 315 315 316 316 317 317 317 316 316 316 316 315 314 314 313 313 312 312 312 312 313 314 314 314 314 314 313 313 314 315 316 317 317 317 317 317 317 316 315 314 314 314 313 313 312 311 311 310 311 311 310 309 309 308 306 305 305 305 304 303 302 302 302 303 302 301 300 299 299 300 299 299 298 299 298 298 299 299 299 299 299 299 298 298
313 312 313 314 315 315 315 315 315 315 314 314 313 313 313 312 312 312 311 312 313 313 313 313 312 312 311 311 310 310 311 312 313 316 317 317 318 317 317 316 315 314 313 312 312 311 310 310 309 310 310 309 308 308 307 305 304 304 304 304 303 302 302 302 302 301 300 299 297 296 297 298 297 296 297 297 297 297 298 298 298 298 298 298 298
311 310 310 311 311 311 311 311 311 311 310 310 310 309 308 308 307 307 308 309 310 311 312 313 312 312 311 311 311 310 309 309 310 312 314 316 317 317 316 315 314 313 312 311 311 310 309 309 309 309 308 308 307 306 305 304 304 304 303 303 302 302 302 301 300 299 298 297 296 295 295 296 296 295 296 296 297 297 297 297 297 297 297 297 297
309 308 308 308 307 307 306 306 305 305 304 304 303 303 303 303 303 303 303 303 305 306 309 310 311 310 311 312 312 311 310 309 309 311 313 315 316 316 315 314 313 312 311 311 310 309 309 308 308 308 307 306 305 304 303 303 303 303 303 303 302 301 300 299 297 296 296 296 295 295 294 295 295 295 295 296 296 296 297 297 297 297 297 297 297
306 305 305 304 304 304 304 303 303 303 302 302 302 301 301 301 301 302 302 302 302 303 304 307 308 309 311 312 313 312 311 310 310 311 313 313 315 315 314 312 312 311 310 310 309 309 308 308 307 307 306 305 304 303 303 303 303 303 302 301 300 299 297 295 295 294 294 294 295 294 294 294 295 295 295 296 296 296 296 297 297 297 297 297 297
304 304 304 304 304 304 304 304 303 303 303 303 302 302 301 301 301 301 301 302 302 302 302 304 307 309 311 312 313 312 312 311 310 311 312 313 313 312 311 310 310 310 309 309 308 307 307 307 307 306 305 304 304 303 303 303 303 302 300 298 296 295 294 294 294 294 294 294 294 294 294 294 294 294 294 295 295 296 296 296 296 296 296 296 296
305 305 305 305 305 304 304 303 304 303 303 303 302 302 301 301 301 301 301 301 301 301 302 303 305 308 310 311 312 311 311 309 309 309 310 310 310 309 309 308 308 308 308 307 307 307 307 307 306 305 305 304 304 304 303 303 302 300 297 295 294 294 293 293 293 293 294 294 294 294 294 294 293 293 293 294 294 295 295 295 295 295 296 296 295
306 305 306 305 305 304 304 304 303 303 303 302 302 302 302 302 301 301 301 301 301 301 301 301 303 306 308 309 309 309 308 307 306 306 307 307 308 308 307 307 306 306 306 306 306 306 306 305 304 304 304 304 304 303 302 300 298 295 294 293 293 293 293 293 293 293 293 294 293 293 293 293 293 292 293 293 293 294 294 294 294 294 294 294 295
Wind_Speed
6 6 6 6 5 5 6 6 6 5 5 4 3 2 3 3 3 3 6 8 8 9 9 7 5 5 5 6 7 9 9 9 9 7 5 5 4 3 2 0 1 2 4 3 2 2 3 3 3 3 3 4 5 4 3 2 3 5 5 4 4 4 3 3 2 2 2 2 2 2 3 3 4 4 5 5 6 7 8 8 9 9 9 10 10
8 8 7 7 6 5 6 6 6 5 5 5 4 4 4 4 3 3 6 8 8 9 9 7 6 5 5 5 7 8 9 9 8 8 7 7 6 5 4 2 1 1 3 2 2 1 2 2 2 3 3 3 4 4 4 3 2 3 4 5 5 5 5 4 4 3 2 1 1 1 1 2 3 3 4 5 5 6 7 7 8 8 8 9 9
10 8 7 6 5 5 6 6 5 5 6 6 6 5 5 6 5 4 5 7 9 10 10 8 7 6 5 6 7 8 9 9 8 8 8 8 8 7 6 4 2 1 2 2 2 0 2 2 2 2 2 1 2 3 3 3 2 2 2 4 5 6 6 6 5 4 4 3 2 1 0 1 2 3 3 4 5 5 5 6 6 7 7 7 7
10 8 7 6 5 5 6 5 5 6 7 8 8 7 7 7 7 6 6 6 8 11 11 10 8 7 6 7 8 9 9 9 10 9 8 8 8 8 7 5 3 2 1 2 2 2 1 1 2 3 2 1 1 2 2 2 2 2 2 3 4 6 6 6 6 5 5 4 3 2 1 0 1 2 2 3 4 4 4 5 5 6 6 6 6
9 8 8 7 5 6 6 5 5 6 7 8 9 8 8 8 8 8 7 7 9 12 12 11 10 9 8 8 8 9 10 10 10 9 9 8 8 9 8 5 4 2 1 1 2 3 3 2 1 3 3 2 1 2 2 2 2 2 3 3 3 4 5 6 6 6 5 4 3 3 2 1 0 0 1 1 2 3 3 4 4 4 5 5 5
8 8 8 7 6 7 6 5 6 7 7 8 8 8 8 8 9 9 9 9 10 11 11 10 10 10 10 10 9 9 9 9 9 8 8 8 7 8 8 6 5 4 2 0 2 2 3 3 2 1 2 1 0 1 2 2 1 1 2 2 2 2 3 5 5 6 5 4 4 3 3 2 2 1 1 1 1 1 2 2 3 3 3 3 4
7 6 7 7 7 7 7 6 6 7 7 7 8 8 8 8 9 9 10 10 10 10 10 10 9 10 10 10 10 9 9 9 9 9 8 8 7 7 8 7 7 5 3 1 1 2 3 3 3 3 1 1 1 1 1 1 1 1 1 1 2 3 2 3 4 5 5 5 5 4 4 3 3 3 2 2 2 1 1 1 2 2 2 2 3
6 6 7 7 8 8 7 7 6 6 7 7 8 8 9 8 9 9 9 9 9 9 10 10 10 10 10 10 10 9 8 8 8 9 9 9 8 8 7 8 8 7 5 3 2 2 2 2 3 3 2 1 1 1 1 1 1 1 1 1 3 2 2 1 2 3 4 4 4 4 4 4 3 4 4 3 3 3 2 2 2 2 2 2 2
6 7 8 8 7 7 8 8 7 7 7 8 8 8 9 8 8 8 8 8 8 8 10 11 11 11 9 9 9 9 8 8 8 8 9 9 9 9 9 9 9 9 7 6 4 3 2 1 1 1 2 2 1 2 2 0 1 2 2 0 3 1 1 1 1 2 2 2 3 3 3 3 3 4 4 4 3 3 3 3 3 3 3 2 2
5 6 7 7 7 7 8 8 8 8 9 8 8 8 9 8 8 8 8 7 6 7 9 10 11 10 9 8 8 8 8 8 8 8 8 8 8 9 11 11 10 10 10 9 7 6 4 3 2 1 0 1 2 3 4 2 1 2 3 3 1 1 0 1 0 2 2 2 2 1 1 2 2 3 3 4 4 4 4 4 4 4 4 3 3
3 4 5 5 6 6 7 7 7 8 9 9 9 9 9 9 9 8 8 7 6 7 9 10 10 10 9 9 9 9 9 8 8 8 8 8 8 8 10 11 11 11 10 10 10 9 7 5 4 3 3 1 0 2 4 3 1 1 1 3 4 2 1 1 1 1 1 2 3 3 2 2 1 2 2 3 3 3 4 4 4 4 4 4 4
1 2 2 3 3 4 4 5 6 7 8 8 9 10 10 10 10 8 7 6 6 7 9 9 10 11 11 11 10 10 10 10 9 8 8 9 9 9 9 10 11 11 10 10 10 11 11 9 7 6 5 4 2 1 1 2 1 1 3 3 3 4 5 3 3 4 3 2 3 4 4 3 3 2 2 1 1 1 2 3 4 4 4 4 4
1 1 1 1 1 1 1 2 3 4 5 6 7 8 8 9 9 8 6 5 6 8 9 8 10 10 11 11 10 10 10 10 10 9 9 10 10 10 10 9 9 10 10 10 10 12 14 13 10 8 7 6 5 4 3 2 2 1 3 4 5 4 4 5 5 5 6 4 4 4 4 5 4 4 4 3 2 1 0 1 2 3 4 5 5
1 1 1 1 0 1 2 3 3 3 4 5 5 6 5 5 5 5 6 5 7 9 9 9 9 9 10 10 10 10 10 10 10 10 10 10 10 10 10 9 9 10 10 9 10 11 11 11 12 11 11 10 8 7 6 5 5 4 3 3 4 6 5 3 3 3 2 4 3 2 3 4 4 4 4 4 4 3 2 1 0 1 3 4 5
1 1 1 0 1 1 2 2 2 2 2 3 3 4 3 4 2 1 3 3 6 8 8 9 9 8 9 10 9 9 9 10 10 10 10 10 9 9 8 8 8 9 9 9 9 10 9 9 11 12 13 13 11 10 8 7 7 6 6 6 5 5 6 5 5 6 4 1 1 1 2 2 2 2 2 2 3 3 3 2 1 0 1 2 3
3 3 3 2 3 3 3 2 1 1 1 2 2 2 3 3 3 2 0 1 4 5 6 7 7 7 8 8 8 8 7 7 9 9 9 9 10 9 9 9 10 10 10 9 10 11 11 9 9 9 11 12 13 12 9 8 9 9 9 10 8 6 6 7 7 8 8 7 5 3 2 2 1 1 1 1 1 1 1 1 1 1 1 2 2
5 5 4 5 5 5 5 3 2 1 2 2 3 4 5 5 5 3 2 1 3 4 5 5 5 6 7 6 6 6 5 6 7 7 8 9 10 11 11 12 12 12 12 11 11 12 12 11 9 8 9 10 10 11 9 8 11 11 11 11 11 10 9 8 9 9 10 10 9 8 8 7 6 5 4 4 4 3 3 3 3 3 3 3 3
6 5 5 5 5 6 5 4 2 1 1 1 2 3 3 4 5 4 4 3 2 3 4 5 6 6 6 7 7 6 4 5 5 4 6 7 8 8 9 10 11 12 11 11 11 11 11 10 9 8 9 9 9 10 10 9 10 10 10 11 11 12 11 10 11 12 12 12 11 11 12 12 11 10 9 8 7 6 6 6 6 5 5 4 4
5 5 5 5 6 6 6 5 4 2 1 1 0 1 2 3 3 3 4 5 3 2 2 4 5 6 7 8 9 7 4 4 4 4 4 4 4 3 4 6 8 8 9 9 8 9 8 7 7 8 9 8 8 9 10 10 10 9 9 10 10 12 12 12 12 12 13 14 14 13 13 13 13 13 13 13 13 12 10 9 9 9 8 7 6
5 6 7 7 8 7 7 7 5 4 2 1 0 2 3 3 2 2 2 3 4 4 3 1 2 5 6 5 6 6 4 3 5 6 4 3 3 3 3 5 6 5 6 8 7 7 6 6 7 8 9 9 8 8 9 9 10 10 9 8 9 10 10 10 11 10 10 11 12 13 13 14 15 15 14 14 15 15 14 13 13 13 12 11 10
6 8 9 10 9 9 9 9 8 7 6 4 2 1 1 1 1 2 3 3 3 4 4 4 3 3 3 2 2 2 0 0 2 5 6 5 5 6 4 3 5 4 4 6 6 5 5 6 6 7 7 7 7 8 9 9 10 10 10 9 8 7 6 6 6 5 6 6 7 8 9 10 12 15 14 15 16 16 15 14 14 14 14 13 14
8 9 10 10 10 10 10 10 10 10 9 8 7 6 5 5 3 3 3 3 2 2 2 4 4 5 6 5 4 4 3 3 3 3 6 7 7 8 7 4 4 4 3 5 4 3 3 3 4 4 3 3 3 5 6 7 8 8 8 8 7 5 5 4 2 1 2 3 3 4 3 3 4 7 10 13 16 16 15 15 14 14 13 13 15
9 10 10 10 9 10 10 9 9 10 10 10 10 9 9 8 7 6 4 2 1 1 1 1 2 4 5 4 4 4 3 4 5 5 5 7 9 10 9 8 7 7 5 3 3 3 1 0 1 2 3 3 2 2 3 4 4 4 5 6 6 6 6 5 4 3 1 1 1 2 3 4 4 4 5 8 10 12 14 14 14 13 13 14 16
9 9 9 9 9 10 9 9 9 9 10 10 10 10 10 10 9 8 7 5 4 3 3 3 3 3 3 2 2 2 3 4 5 6 6 6 9 11 12 11 11 11 9 8 7 6 4 4 4 4 5 4 4 4 3 3 3 3 4 5 6 7 6 5 6 4 2 2 2 3 3 4 5 6 6 6 6 7 10 12 13 13 14 16 17
8 8 8 8 9 9 8 8 8 9 9 9 9 10 10 10 10 9 8 7 7 6 6 6 6 4 3 3 3 3 4 5 5 5 6 7 9 12 13 12 13 14 12 10 9 8 6 6 6 6 5 5 5 5 5 4 4 3 3 4 4 6 5 5 5 4 4 4 4 3 3 4 6 7 8 8 7 7 8 10 11 12 13 15 16
8 7 7 7 8 8 8 7 7 8 8 9 9 9 10 10 10 9 8 8 8 7 7 7 7 6 6 5 4 4 4 4 4 4 5 7 9 11 13 14 14 13 11 10 9 8 7 6 6 5 5 4 5 5 5 5 5 4 3 3 3 4 4 4 4 5 6 6 5 4 5 6 7 9 10 11 12 12 12 12 13 13 14 14 16
7 7 7 7 7 7 7 7 7 8 9 9 9 9 10 10 10 9 8 9 8 7 7 7 7 7 7 7 6 6 6 5 5 4 4 6 9 10 12 15 14 12 11 10 9 9 8 6 5 4 4 3 3 3 3 3 4 4 4 4 4 4 4 5 6 6 7 7 7 7 8 9 10 12 13 14 15 16 17 17 17 17 17 17 18
8 7 7 7 7 7 7 7 7 8 9 9 10 9 10 10 10 9 9 9 9 8 8 8 8 8 8 8 8 7 8 7 7 6 5 5 8 10 11 12 12 12 11 9 8 8 8 7 5 4 3 2 2 1 2 2 2 3 4 5 5 6 7 8 9 9 10 11 11 12 13 13 14 15 16 17 18 18 18 18 18 18 18 18 19
7 7 7 7 7 6 6 6 6 7 7 8 9 9 9 9 10 10 9 9 9 8 8 8 8 8 8 8 9 8 9 9 8 8 7 6 6 8 10 11 10 10 11 10 8 7 7 6 5 4 3 2 1 0 1 2 3 3 5 6 7 8 9 10 11 12 13 14 15 16 16 17 17 17 17 17 17 17 17 17 17 17 18 18 18
7 6 6 5 5 5 6 6 6 6 6 7 7 8 8 8 8 9 9 9 9 9 8 8 8 8 8 8 8 8 9 10 9 9 8 7 6 5 7 10 10 9 9 10 9 7 6 6 4 4 3 2 2 1 1 2 4 4 5 6 7 8 9 10 11 12 13 14 15 16 16 16 16 16 16 16 16 16 16 17 17 17 18 18 18
7 6 6 5 5 5 5 5 5 6 5 5 5 6 6 7 7 8 8 8 8 9 9 8 8 8 7 7 7 7 8 9 9 10 9 8 8 7 6 6 9 9 8 8 9 8 6 5 4 4 4 3 3 3 3 3 4 4 5 6 7 7 8 9 10 11 11 12 13 13 14 14 14 15 15 16 16 16 17 17 18 18 19 19 19
8 7 7 6 6 5 4 4 4 4 4 4 4 4 4 4 5 6 7 7 7 7 7 7 7 7 7 7 7 6 7 7 8 8 9 9 8 8 8 7 7 8 8 7 8 8 6 5 4 3 3 4 4 4 3 4 4 4 5 6 6 7 8 9 10 10 11 11 11 12 12 13 14 14 15 15 16 17 17 18 18 18 19 19 19
9 8 7 6 6 4 3 2 1 2 3 4 5 5 4 3 3 3 3 4 5 5 5 5 5 5 5 5 5 5 6 6 6 6 6 6 7 7 8 8 7 8 7 7 7 7 5 3 3 3 3 4 5 5 5 5 5 5 5 6 7 8 8 9 10 11 11 11 12 12 13 13 14 14 15 15 16 17 17 18 18 19 19 19 19
10 9 8 7 6 4 3 2 1 1 2 3 4 4 4 3 3 2 1 1 1 2 2 2 3 4 4 4 3 3 3 3 3 4 4 3 4 4 5 6 6 6 6 6 5 5 3 2 3 4 5 6 6 7 7 8 8 8 8 8 8 9 9 10 11 11 12 12 12 13 13 14 15 15 16 16 17 17 18 19 19 20 20 20 20
12 11 11 9 8 7 5 4 4 3 1 2 3 4 5 4 4 3 3 2 1 1 1 1 1 1 2 3 3 3 2 2 2 2 2 2 2 2 2 2 2 3 4 4 3 3 4 4 5 6 7 8 8 9 10 10 10 11 11 11 11 11 11 11 11 12 12 13 13 14 15 15 16 17 17 18 18 18 19 20 20 21 21 22 22
13 13 12 11 9 9 8 7 7 6 5 5 5 6 7 8 8 7 6 5 4 4 4 4 4 3 3 4 4 3 3 3 3 2 2 2 2 2 3 3 3 2 2 3 6 8 8 7 6 6 8 9 9 10 11 11 11 11 12 12 12 12 12 12 12 13 13 13 14 14 15 16 17 18 19 19 20 20 20 21 21 22 22 23 23
15 14 13 12 12 11 11 11 10 10 10 10 10 9 10 11 12 13 13 11 8 8 8 7 7 6 7 7 7 6 6 5 5 3 2 2 2 2 3 4 4 4 4 5 7 9 9 7 7 7 8 9 9 10 11 12 13 14 14 13 13 13 13 14 14 14 15 15 15 16 16 17 18 19 20 20 21 22 22 22 23 23 24 24 24
14 15 14 14 14 14 14 15 14 14 15 15 14 14 15 15 15 16 17 15 13 12 11 10 9 9 9 10 11 10 9 8 8 6 3 3 4 4 4 4 5 5 5 6 8 9 9 7 7 8 9 10 11 12 13 14 15 16 16 16 16 15 15 15 16 17 17 18 18 18 18 19 20 20 21 22 22 23 23 24 24 25 25 26 26
13 15 15 16 16 16 16 16 16 18 19 18 17 17 17 16 16 17 16 16 16 15 14 14 13 11 10 11 11 11 10 10 10 9 7 6 7 8 8 7 7 7 7 7 8 8 8 8 7 8 9 11 13 14 15 16 18 19 20 20 20 19 19 18 18 19 20 21 21 21 22 22 22 23 23 23 24 24 25 25 25 25 26 27 27
13 14 15 15 16 17 17 17 18 19 19 18 17 17 17 17 17 17 16 16 16 17 16 16 15 13 12 12 11 11 11 13 14 14 13 11 11 10 10 10 10 10 10 10 9 9 8 8 8 8 10 12 13 14 16 17 19 21 22 23 23 24 23 22 22 22 22 23 24 24 25 26 25 26 27 26 26 26 26 26 26 26 27 27 27
14 15 16 17 18 18 17 16 16 16 16 16 16 16 16 16 16 16 16 16 17 17 17 16 16 16 15 14 14 15 15 17 18 19 18 17 15 13 13 13 13 13 13 13 13 11 10 9 9 10 11 12 13 15 16 17 18 20 23 25 25 25 25 24 25 25 24 24 24 24 25 27 27 27 28 29 29 29 28 27 27 26 27 27 27
15 15 16 16 17 17 16 14 13 13 13 12 12 11 11 11 11 11 12 12 13 14 14 14 15 16 15 14 17 19 19 20 21 19 19 20 19 17 16 15 15 16 16 16 16 15 13 11 12 13 12 13 15 16 18 19 21 22 24 25 26 27 26 25 25 26 27 26 27 26 25 26 27 27 27 29 30 30 29 28 28 27 27 27 27
9 7 6 6 7 8 8 7 7 6 6 5 5 6 6 6 6 7 8 8 9 9 10 10 11 13 12 10 14 16 17 19 20 17 18 21 22 21 20 18 17 19 20 20 19 18 17 16 16 15 15 15 17 17 18 21 23 24 25 26 27 27 27 28 28 28 28 29 29 29 28 28 29 28 27 27 28 28 28 28 28 28 28 27 27
6 5 5 5 6 5 5 5 5 5 4 4 4 5 5 6 6 7 7 8 8 8 9 9 9 10 10 9 11 12 13 16 17 15 15 18 20 21 21 20 20 21 22 23 22 20 19 19 18 18 17 17 17 18 19 21 23 25 26 28 29 29 29 30 30 30 30 31 31 31 30 28 29 30 28 28 29 28 27 27 27 28 28 28 28
7 7 6 6 6 6 5 5 4 4 4 5 5 6 7 8 8 9 9 9 9 9 9 10 10 10 10 9 10 11 12 13 15 15 14 16 17 18 20 22 23 23 23 23 22 21 20 19 19 18 17 16 17 19 20 22 23 24 27 29 30 31 31 31 31 31 31 31 32 33 32 30 30 31 30 28 30 30 29 28 27 27 28 28 28
8 7 7 6 5 5 5 5 5 5 5 6 7 8 9 10 10 11 11 10 11 11 11 11 11 11 10 9 9 10 11 12 13 14 15 16 17 17 18 20 21 21 22 22 22 20 20 20 19 17 16 16 18 20 21 22 24 26 28 30 31 31 32 32 32 32 31 31 31 33 34 33 33 34 32 30 30 29 28 29 28 27 28 28 28
7 7 6 6 6 5 5 5 4 5 5 5 6 7 8 8 9 9 9 10 10 11 12 12 13 13 12 11 10 11 11 12 12 14 14 15 16 15 14 14 16 19 21 22 22 21 20 20 18 17 17 18 20 21 22 24 27 29 31 31 31 32 33 33 34 33 33 33 32 31 33 33 33 34 34 33 31 30 28 28 28 28 28 29 29
6 6 6 6 5 5 3 3 3 3 3 4 5 6 7 8 8 9 9 9 10 10 11 12 13 13 13 12 12 11 12 12 12 12 12 12 12 11 10 10 14 18 20 21 21 21 20 19 19 19 20 21 22 23 26 28 30 31 32 32 32 32 33 33 34 33 31 32 34 33 33 32 30 30 32 33 33 33 31 29 28 28 28 28 27
6 6 5 4 3 2 2 3 4 4 5 6 7 8 9 10 10 11 11 11 11 11 11 11 12 12 12 12 12 12 12 12 11 10 9 8 7 7 8 10 14 18 20 20 20 20 19 19 20 21 22 23 25 27 30 32 32 32 31 31 30 31 31 31 30 28 28 30 33 31 28 27 26 27 30 32 33 33 32 31 29 27 26 25 24
6 5 4 3 3 4 5 6 6 7 7 8 9 10 10 11 11 11 11 12 12 12 11 11 11 11 11 12 12 12 12 12 12 10 7 6 6 7 9 13 16 18 19 20 20 20 20 20 21 23 25 27 29 31 33 33 32 32 31 30 30 31 31 29 28 27 27 26 25 23 20 20 23 24 25 28 28 28 28 28 26 23 22 21 22
7 6 6 6 7 8 8 8 9 9 10 11 12 12 11 11 11 11 11 12 12 11 11 11 10 10 11 12 12 12 12 12 11 9 8 7 8 10 13 15 17 18 18 19 20 20 21 22 24 26 28 30 31 32 32 32 31 31 30 30 30 30 29 28 27 25 23 19 17 16 16 17 20 20 19 20 22 22 20 20 19 18 17 17 18
Wind_Direction
237 231 225 230 234 217 207 209 213 211 198 192 196 208 210 213 229 235 221 216 214 212 214 215 211 214 221 217 213 223 229 227 224 218 212 213 215 217 210 203 3 1 358 346 323 284 239 238 253 260 253 233 243 267 271 249 227 220 214 209 213 221 222 216 201 173 151 140 121 104 86 74 63 61 62 64 66 68 70 68 65 62 60 59 57
236 238 237 233 238 232 214 205 208 212 202 196 195 197 203 205 219 236 219 216 219 214 214 221 215 210 217 210 202 213 222 225 232 232 226 228 231 231 228 232 258 323 345 352 345 260 214 225 253 262 268 240 236 260 277 299 292 236 227 222 221 222 222 224 223 213 202 193 178 122 84 69 56 51 49 49 52 56 61 65 65 64 61 58 54
237 238 237 229 233 233 214 201 204 211 206 201 198 199 204 204 211 232 226 215 221 222 220 226 223 213 210 204 196 204 215 224 232 229 223 229 235 231 224 225 233 259 314 336 357 148 189 209 227 238 266 261 234 257 274 294 307 282 255 236 230 228 227 226 224 224 219 210 215 214 140 63 48 46 43 38 39 40 47 55 59 62 63 62 57
239 235 226 221 226 224 213 209 210 208 205 202 201 203 206 209 214 228 237 225 225 229 228 230 233 228 218 209 205 207 211 217 222 221 220 223 225 220 213 214 218 229 295 326 353 20 98 178 203 214 229 264 235 241 262 273 281 282 284 263 235 228 232 232 227 227 224 217 217 212 218 251 37 36 36 32 31 30 33 41 48 52 54 57 58
238 229 224 223 219 214 215 218 213 205 203 202 203 206 207 214 219 222 231 229 227 231 231 233 238 241 237 226 218 215 215 215 214 213 213 213 212 209 206 204 207 210 233 324 352 11 23 45 135 201 209 228 231 228 234 239 247 253 267 272 246 226 228 236 233 233 232 225 222 214 215 222 223 345 22 22 18 16 21 26 32 41 43 43 48
234 223 224 223 208 209 217 218 209 202 203 204 207 210 211 216 222 221 224 226 229 234 236 237 240 243 244 239 229 221 219 218 214 209 206 207 210 210 210 206 202 205 206 291 359 14 22 32 41 111 181 166 135 243 219 218 237 224 239 254 255 247 236 236 233 235 240 237 235 233 227 223 219 222 220 237 326 346 359 5 9 23 35 33 31
232 220 215 213 205 207 217 218 213 210 208 210 214 214 213 214 217 217 220 225 231 240 243 244 246 246 245 241 235 228 225 225 222 219 214 214 218 219 220 216 207 208 213 241 346 8 21 29 35 46 76 97 73 31 178 191 189 137 148 211 245 287 271 238 232 231 239 243 240 243 243 237 225 219 213 211 218 232 271 309 325 345 3 14 17
231 221 211 210 209 212 218 222 223 222 217 218 224 225 219 214 214 212 214 223 230 241 245 247 252 253 250 244 238 236 235 234 232 230 229 228 229 228 232 232 219 211 215 234 268 326 359 21 28 39 43 47 60 41 107 186 161 124 95 181 222 289 310 235 226 214 221 233 236 241 243 240 233 225 217 210 211 215 225 243 261 283 300 323 349
236 230 222 214 214 218 223 227 230 234 233 231 234 237 229 219 220 219 219 223 227 236 244 249 254 256 256 250 242 240 241 241 238 235 234 233 234 235 238 243 233 219 218 229 237 251 279 321 2 40 40 30 39 26 24 158 139 110 63 102 203 239 5 352 205 185 193 205 213 226 230 229 227 224 221 214 212 217 223 232 239 251 267 279 298
233 232 230 225 224 227 231 236 241 247 253 252 248 246 238 228 228 229 229 232 231 236 244 251 255 256 257 255 246 241 242 242 240 237 234 232 234 235 236 241 246 240 232 233 236 240 247 252 268 266 243 43 50 33 21 27 108 105 54 46 133 209 21 17 16 181 173 145 146 163 178 199 209 212 218 217 217 221 224 231 237 244 254 264 274
212 219 227 232 233 235 241 247 253 256 260 263 263 262 256 245 238 232 230 235 239 244 248 252 255 256 257 259 255 249 246 246 244 241 239 235 234 234 234 237 246 253 250 247 246 245 246 243 247 259 258 267 21 48 32 30 61 186 326 22 24 7 343 355 7 17 153 140 117 101 102 113 139 173 195 209 220 228 232 235 237 241 247 258 267
157 190 208 225 233 241 252 259 264 266 268 270 270 271 268 261 254 244 232 227 235 245 246 246 251 254 256 257 257 257 256 255 251 247 245 244 240 237 237 239 245 252 254 256 256 251 250 246 240 247 258 272 289 290 39 33 57 189 218 254 324 351 352 346 6 27 34 76 101 96 92 93 97 106 125 147 187 229 250 250 246 247 247 252 261
141 141 157 163 187 251 279 281 282 285 288 287 284 282 278 271 266 257 244 225 225 238 238 235 241 246 249 252 252 254 256 258 258 254 253 255 252 247 243 242 249 253 249 249 255 256 253 251 249 249 252 260 264 247 224 210 223 203 196 223 245 271 323 344 3 24 35 47 72 91 91 91 93 93 93 93 91 90 104 268 262 261 257 254 256
138 147 148 163 205 289 301 304 300 295 297 299 302 307 307 297 280 258 252 233 221 234 234 228 233 236 241 247 247 247 249 253 258 257 257 258 254 249 244 241 249 257 253 244 250 263 263 256 255 254 251 252 254 251 245 245 253 255 228 214 225 239 255 288 321 332 18 51 60 84 95 91 89 90 88 87 87 84 81 69 340 283 276 267 260
99 104 118 202 255 297 303 311 305 296 306 315 318 324 336 337 334 268 255 231 212 229 230 221 226 234 239 242 242 244 247 248 254 256 255 252 246 243 241 241 247 252 252 246 246 259 270 268 261 258 256 256 258 261 268 275 273 269 264 251 229 228 239 247 258 260 262 287 26 61 92 103 89 80 69 71 77 69 66 65 52 346 291 278 268
96 83 76 65 59 56 54 54 34 33 34 28 30 29 35 34 36 58 206 187 191 217 226 220 224 231 233 237 242 245 245 243 246 250 247 243 243 244 243 242 245 248 250 249 244 247 258 268 268 268 268 263 258 259 269 278 274 271 269 263 253 244 241 245 257 262 263 262 261 272 271 246 242 260 289 315 347 10 13 8 351 330 312 299 284
94 84 72 63 60 55 53 56 49 53 57 57 67 65 60 58 54 58 71 120 178 208 221 218 217 224 225 231 244 250 253 245 240 239 234 233 240 246 248 244 243 248 253 251 245 245 255 267 271 273 274 271 264 262 265 265 265 268 270 269 268 266 261 258 263 266 267 266 261 259 262 262 261 259 262 273 278 275 278 293 301 298 297 293 288
95 85 73 65 58 49 48 57 63 73 84 80 80 68 57 48 46 50 58 77 148 201 223 223 214 216 223 231 242 256 274 259 239 233 225 224 234 242 249 247 241 243 248 250 248 249 258 266 269 271 270 272 271 264 261 260 260 264 270 274 274 273 275 272 264 261 263 267 265 260 261 263 263 263 264 269 275 277 282 287 286 283 281 280 280
91 84 80 73 62 54 56 63 73 89 117 155 126 2 342 354 15 31 49 64 98 151 203 227 221 219 226 236 241 246 265 255 227 225 223 219 221 222 240 245 238 238 240 243 243 244 253 261 265 271 273 276 275 261 258 268 274 271 269 276 280 280 280 276 268 263 258 260 264 260 255 255 257 262 267 271 271 273 279 282 282 283 281 280 277
77 82 88 83 75 69 67 68 72 78 82 98 289 307 307 322 355 15 43 63 84 98 109 145 204 224 231 239 239 235 248 256 230 222 203 172 180 196 223 243 236 225 228 232 231 234 247 261 266 270 273 279 286 274 267 273 279 278 276 279 279 279 278 274 273 271 263 260 263 260 256 255 255 256 261 265 263 264 271 274 276 280 282 282 279
80 91 94 92 87 80 72 70 71 74 74 71 64 21 359 45 77 88 90 91 95 94 89 91 110 148 167 168 187 202 219 39 209 210 186 160 172 184 180 218 230 207 209 226 228 237 254 265 273 276 274 274 276 274 274 277 274 273 278 281 276 276 279 271 264 267 270 267 263 264 268 268 261 259 263 262 257 257 264 269 271 275 280 283 282
92 98 97 94 90 83 75 71 70 72 74 73 74 76 81 87 87 97 110 106 98 100 80 78 94 109 119 121 114 106 92 87 104 154 174 173 179 175 152 153 189 166 172 221 219 218 251 269 283 297 308 308 292 277 273 276 276 273 276 280 278 276 275 273 276 303 289 276 263 264 282 300 283 274 274 268 262 258 259 264 268 272 277 281 283
97 100 96 92 88 85 78 73 71 69 70 72 76 79 82 85 81 83 92 86 52 18 4 80 107 110 115 115 114 116 110 106 109 123 155 172 173 162 141 129 131 125 126 150 144 137 147 11 2 24 29 27 18 342 299 288 291 285 279 282 283 277 272 281 306 330 330 306 287 276 294 321 324 314 301 288 277 264 259 262 265 267 270 271 275
99 99 96 92 88 87 83 78 76 72 67 67 70 75 78 78 78 77 76 79 86 80 78 100 113 118 128 124 125 133 133 128 121 124 140 160 165 154 140 129 121 114 113 113 112 114 109 89 68 59 55 54 51 37 18 355 336 319 303 296 291 292 297 301 303 308 324 332 317 298 302 316 324 330 331 327 314 282 267 266 265 263 264 265 268
100 99 95 88 84 85 83 79 76 72 68 65 65 69 72 72 71 71 71 76 85 87 87 91 95 104 115 114 116 125 142 143 130 130 133 140 156 152 141 132 125 120 118 117 116 112 105 96 81 68 62 57 52 45 39 32 22 8 341 317 307 313 325 326 316 312 315 316 314 317 324 323 325 331 331 331 327 308 288 278 273 271 271 270 271
104 101 95 87 82 79 76 72 71 68 66 64 65 67 69 68 67 65 65 68 71 74 78 81 84 89 93 94 100 107 120 136 138 154 153 143 154 158 146 136 128 123 121 120 120 115 107 103 95 84 75 65 57 50 44 38 33 29 17 357 344 338 336 329 317 314 312 311 312 314 319 320 319 319 317 315 312 306 298 290 284 279 276 276 275
112 105 98 90 82 76 71 67 65 62 60 59 59 63 66 66 64 63 63 64 63 63 67 73 78 79 80 82 84 87 93 99 106 125 158 161 164 167 157 144 133 126 121 119 124 125 115 110 113 111 97 78 65 56 43 27 17 13 2 351 345 335 326 317 312 312 311 312 312 309 308 309 308 307 306 305 303 300 296 292 287 282 278 276 275
116 107 100 92 82 75 72 69 65 61 57 54 52 54 58 61 61 60 60 62 62 63 68 70 71 74 76 78 79 81 84 84 84 90 108 143 162 169 166 157 146 139 132 120 115 121 120 116 120 128 129 118 101 69 38 5 346 345 329 319 319 316 314 312 311 311 310 310 309 308 307 306 305 304 302 300 299 298 296 293 290 286 283 279 276
121 112 104 94 85 76 70 68 67 63 57 53 50 49 52 54 56 56 54 57 58 61 69 68 67 69 71 76 80 82 84 82 81 86 91 104 137 166 175 175 164 153 147 132 114 115 123 121 118 118 124 131 138 173 295 292 292 299 298 298 300 301 303 305 306 307 308 308 308 307 307 307 306 306 304 302 300 299 298 297 295 293 290 287 283
132 122 113 100 88 77 70 63 59 59 56 53 49 46 47 48 49 50 49 51 50 49 53 58 61 63 64 72 80 84 87 86 86 88 90 94 103 132 172 187 182 172 167 151 132 124 122 117 112 104 98 98 98 69 341 307 303 304 304 304 304 304 307 308 308 308 308 308 308 308 308 308 308 308 306 304 302 301 300 299 299 297 295 293 291
150 139 132 123 108 93 80 68 59 57 56 56 53 50 48 44 41 41 41 43 44 41 38 38 42 49 51 57 66 73 79 81 84 88 89 91 96 100 118 165 183 187 190 173 150 139 130 118 104 86 70 61 54 36 16 358 343 333 327 324 321 320 320 317 315 314 312 312 311 311 310 309 309 308 306 306 305 304 303 302 301 299 298 297 295
168 156 148 143 133 121 107 90 74 63 55 51 47 45 49 47 43 40 36 34 34 36 37 31 29 34 38 40 45 52 61 64 69 81 90 94 96 96 96 113 154 171 181 179 159 144 135 121 99 72 53 46 35 18 5 359 352 343 336 332 331 329 326 321 318 317 315 314 313 312 311 310 309 308 307 306 305 305 304 303 303 301 300 299 297
181 176 168 159 151 145 139 117 65 45 44 43 36 27 21 25 35 44 46 40 31 28 31 28 21 20 21 25 28 29 40 49 51 59 76 88 93 98 99 103 122 142 156 167 155 137 125 108 79 42 18 12 2 350 343 342 339 337 335 332 330 327 322 319 317 317 316 315 314 313 311 310 309 309 308 307 306 305 304 304 303 303 302 301 300
188 191 189 182 178 185 202 230 266 322 3 11 13 10 2 356 358 3 15 59 70 51 37 29 16 6 358 359 2 3 14 27 31 36 41 52 71 86 92 99 111 123 133 144 140 122 96 53 19 2 349 344 339 332 328 328 328 329 331 329 325 320 317 317 315 314 314 313 313 312 311 310 309 308 307 305 304 303 303 302 301 301 300 299 299
195 199 201 200 205 216 226 237 242 239 258 321 336 340 336 327 320 314 299 283 269 269 323 336 328 331 326 323 327 323 321 327 334 348 358 5 19 24 36 59 80 95 102 100 78 43 15 353 341 339 336 333 332 331 328 326 325 325 325 323 322 320 318 316 313 312 312 312 312 311 310 310 308 307 305 303 302 301 300 299 298 298 297 296 296
204 206 212 217 224 233 239 242 246 251 254 267 286 299 303 299 293 287 280 274 267 264 271 281 283 290 294 288 287 285 284 290 295 308 319 311 314 342 355 354 352 4 22 20 9 2 0 359 352 346 342 339 339 338 337 334 330 326 322 319 318 316 314 312 309 308 307 306 307 307 308 308 307 306 304 302 301 299 297 296 295 294 293 293 293
210 214 222 228 237 245 248 250 257 268 271 272 275 281 288 289 285 283 278 270 266 265 264 266 271 281 288 285 279 270 261 264 264 262 275 291 304 329 339 334 327 326 326 329 341 349 355 4 5 0 358 356 354 351 348 345 339 333 326 320 315 311 309 307 305 303 304 304 304 304 305 305 305 305 304 303 302 300 298 296 295 293 292 291 290
221 226 232 238 246 250 251 254 261 269 271 271 273 278 287 291 287 283 276 267 267 270 267 267 269 272 278 281 281 275 267 265 262 254 255 276 283 283 283 283 285 295 303 306 316 329 335 338 344 350 353 352 350 347 347 347 343 339 334 325 316 309 305 304 303 302 301 300 300 300 300 300 300 300 300 300 300 300 299 298 297 295 293 291 290
233 237 244 249 253 255 256 257 261 263 265 268 271 276 284 288 283 279 273 265 264 265 264 265 265 265 269 273 273 271 271 272 269 262 258 260 266 269 267 264 266 270 275 281 292 305 311 313 321 330 334 334 334 334 337 339 339 339 338 334 327 318 311 307 306 304 302 302 301 299 298 297 297 296 295 294 295 295 297 298 297 296 294 292 291
241 245 252 254 255 258 260 259 258 259 261 264 268 274 280 281 276 271 267 262 261 262 263 264 261 259 262 264 262 261 269 275 271 264 257 252 254 262 265 266 266 267 269 273 277 281 285 292 299 308 316 321 324 326 329 333 334 333 334 336 333 327 319 314 310 307 306 306 305 303 302 299 299 299 297 295 294 293 294 296 295 295 294 292 291
251 256 259 258 256 258 259 258 256 257 260 263 267 270 273 273 270 268 266 266 266 266 267 266 261 255 252 251 253 258 266 269 265 261 258 253 250 254 260 265 267 268 270 272 272 271 272 278 284 293 305 312 316 320 322 325 328 328 330 331 330 326 321 316 312 309 306 305 303 302 301 300 299 300 299 298 296 295 295 295 294 293 292 291 290
258 261 261 258 255 253 254 255 254 254 255 258 262 265 267 267 270 273 276 277 276 274 274 274 270 267 263 259 259 262 266 265 261 259 259 255 252 251 254 260 266 269 268 267 267 268 269 272 277 286 297 302 308 314 316 319 323 326 328 329 327 325 321 317 315 312 308 307 306 303 301 301 300 299 298 297 296 295 296 295 295 294 293 291 289
246 244 237 231 229 230 232 232 229 226 226 230 240 251 259 269 281 289 295 297 298 295 292 289 287 289 293 285 273 272 272 270 271 272 265 258 254 252 252 254 260 264 266 266 268 269 270 271 276 284 291 296 304 310 311 314 320 324 326 327 324 322 320 317 316 314 310 310 310 307 305 304 303 300 298 296 294 293 293 293 293 294 294 293 291
184 171 161 156 158 165 171 175 178 182 191 209 229 246 262 276 287 294 298 299 300 300 299 298 298 302 307 303 290 286 284 281 285 285 271 258 255 255 254 252 254 257 262 266 268 269 271 274 278 283 287 294 302 305 306 311 317 320 323 323 320 317 316 314 313 312 311 311 311 309 307 306 305 303 301 300 298 295 293 291 290 291 291 292 292
159 159 157 152 152 159 166 172 179 190 205 225 244 259 270 278 284 287 289 289 289 290 291 293 297 300 303 303 296 291 288 286 287 287 278 267 262 259 255 251 251 253 258 263 267 270 273 274 277 281 286 292 298 301 305 310 314 317 318 317 315 313 312 310 309 309 310 311 312 311 308 307 306 304 302 301 300 299 297 295 292 290 289 289 288
161 161 161 164 169 174 183 191 199 214 229 243 256 266 272 276 279 281 281 280 280 282 284 288 292 294 296 298 298 295 291 287 284 282 279 275 270 265 257 252 250 252 256 261 266 269 271 273 278 285 291 296 299 302 306 309 313 315 314 313 312 311 309 307 306 307 308 309 310 310 309 308 308 306 304 302 299 298 297 296 294 292 291 289 287
170 172 175 181 186 189 194 202 212 227 243 254 263 270 275 279 282 284 285 284 282 281 280 282 285 287 289 292 296 299 298 293 286 281 280 279 274 268 260 254 253 253 255 261 266 269 271 276 283 291 296 299 302 304 307 310 312 311 310 309 309 308 307 307 307 309 310 309 310 310 309 307 306 305 304 303 301 298 297 295 294 293 291 290 289
178 178 180 181 183 186 193 212 235 257 277 292 300 302 301 302 303 303 303 302 297 290 284 280 279 281 283 285 288 292 294 293 287 281 281 281 277 272 268 262 259 258 260 264 267 271 276 282 289 294 298 301 303 306 308 310 310 310 310 311 310 309 308 309 310 311 311 309 309 310 308 306 305 304 303 303 302 301 301 299 296 293 291 289 289
181 177 177 180 189 211 249 272 282 293 302 311 315 315 313 313 312 312 312 311 309 305 297 289 283 281 282 282 282 283 286 289 288 283 280 280 279 278 274 266 262 262 264 267 270 274 280 286 291 295 299 302 304 306 307 307 308 309 310 310 310 309 309 309 309 308 307 307 308 308 306 304 305 306 305 303 303 302 303 302 300 297 291 287 285
210 210 219 239 266 285 291 291 294 301 307 310 311 309 310 309 309 310 311 310 310 309 306 299 291 284 281 279 278 281 286 291 293 294 298 300 287 271 264 262 261 261 264 269 274 280 285 289 294 298 301 302 303 304 305 305 306 307 306 306 306 305 306 306 304 304 304 305 306 306 301 300 304 305 304 303 302 302 302 304 303 297 290 284 281
244 252 262 274 284 291 294 295 298 303 307 310 309 309 310 309 309 311 312 312 313 312 310 306 297 288 285 285 288 293 298 302 304 308 313 311 293 276 267 263 263 265 269 274 280 285 290 295 299 301 301 301 301 301 302 302 303 303 303 303 303 303 303 302 301 301 301 299 300 301 298 297 302 304 303 302 301 299 300 300 297 292 289 288 285